Weather History for KHLN - November, 2012

Change the Weather History Date:

Saturday, November 3, 2012

  Actual Average Record
Temperature  
Mean Temperature 39 °F 38 °F  
Max Temperature 51 °F 50 °F 69 °F (1983)
Min Temperature 27 °F 27 °F -8 °F (1991)
Degree Days  
Heating Degree Days 26 27  
Month to date heating degree days 60 79  
Since 1 July heating degree days 835 987  
Cooling Degree Days 0 0  
Month to date cooling degree days 0 0  
Year to date cooling degree days 531 406  
Moisture  
Dew Point 31 °F    
Average Humidity 71    
Maximum Humidity 92    
Minimum Humidity 50    
Precipitation  
Precipitation T in 0.01 in 0.28 in (1933)
Month to date precipitation 0.02 0.04  
Year to date precipitation 7.14 10.37  
Snow  
Snow 0.00 in 0.10 in 3.20 in (1933)
Month to date snowfall 0.0 0.3  
Since 1 July snowfall T 4.3  
Since 1 September snowfall T 4.0  
Snow Depth 0.00 in    
Sea Level Pressure  
Sea Level Pressure 30.20 in    
Wind  
Wind Speed 1 mph (NW)    
Max Wind Speed 8 mph    
Max Gust Speed 13 mph    
Visibility 10 miles    
Events      
T = Trace of Precipitation, MM = Missing Value Source: NWS Daily Summary

Daily Weather History Graph

Daily Weather History Graph

Search for Another Location

Airport or City:

Trip Planner

Search our weather history database for the weather conditions in past years. The results will help you decide how hot, cold, wet, or windy it might be!

Date:

Astronomy

Nov. 03, 2012 Rise Set
Actual Time 8:13 AM MDT 6:08 PM MDT
Civil Twilight 7:41 AM MDT 6:40 PM MDT
Nautical Twilight 7:05 AM MDT 7:16 PM MDT
Astronomical Twilight 6:30 AM MDT 7:51 PM MDT
Moon 9:47 PM MDT (11/3) 12:26 PM MDT (11/3)
Length of Visible Light 10h 58m
Length of Day
9h 55m
Waning Gibbous, 80% of the Moon is Illuminated
Nov 3
Waning Gibbous
Nov 6
Last Quarter
Nov 13
New
Nov 20
First Quarter
Nov 28
Full

Hourly Weather History & Observations

Time (MDT) Temp. Windchill Dew Point Humidity Pressure Visibility Wind Dir Wind Speed Gust Speed Precip Events Conditions
12:53 AM 35.6 °F - 28.4 °F 75% 30.12 in 10.0 mi Calm Calm - N/A   Clear
1:53 AM 33.1 °F - 28.9 °F 85% 30.20 in 10.0 mi Calm Calm - N/A   Clear
2:53 AM 32.0 °F - 28.0 °F 85% 30.19 in 10.0 mi Calm Calm - N/A   Clear
3:53 AM 32.0 °F - 27.0 °F 82% 30.21 in 10.0 mi Calm Calm - N/A   Clear
4:53 AM 30.0 °F - 26.1 °F 85% 30.21 in 10.0 mi Calm Calm - N/A   Clear
5:53 AM 30.0 °F - 27.0 °F 88% 30.22 in 10.0 mi Calm Calm - N/A   Clear
6:53 AM 30.0 °F - 28.0 °F 92% 30.23 in 10.0 mi Calm Calm - N/A   Scattered Clouds
7:53 AM 30.0 °F - 28.0 °F 92% 30.24 in 10.0 mi Calm Calm - N/A   Partly Cloudy
8:53 AM 30.9 °F - 28.0 °F 89% 30.26 in 10.0 mi Calm Calm - N/A   Scattered Clouds
9:53 AM 34.0 °F - 28.9 °F 82% 30.26 in 10.0 mi Calm Calm - N/A   Clear
10:53 AM 39.0 °F - 30.9 °F 73% 30.25 in 10.0 mi Calm Calm - N/A   Clear
11:53 AM 43.0 °F - 32.0 °F 65% 30.24 in 10.0 mi Calm Calm - N/A   Clear
12:53 PM 46.0 °F - 30.9 °F 56% 30.21 in 10.0 mi Calm Calm - N/A   Clear
1:53 PM 48.0 °F - 30.9 °F 52% 30.18 in 10.0 mi Calm Calm - N/A   Clear
2:53 PM 46.9 °F - 32.0 °F 56% 30.18 in 10.0 mi NW 4.6 mph - N/A   Clear
3:53 PM 46.0 °F 44.8 °F 32.0 °F 58% 30.17 in 10.0 mi West 3.5 mph - N/A   Clear
4:53 PM 46.9 °F - 32.0 °F 56% 30.17 in 10.0 mi Calm Calm - N/A   Clear
5:53 PM 45.0 °F 42.6 °F 33.1 °F 63% 30.18 in 10.0 mi NW 4.6 mph - N/A   Mostly Cloudy
6:53 PM 46.9 °F - 33.1 °F 59% 30.18 in 10.0 mi WNW 4.6 mph - N/A   Overcast
7:53 PM 46.9 °F - 33.1 °F 59% 30.19 in 10.0 mi SSE 4.6 mph - N/A   Overcast
8:53 PM 46.0 °F - 33.1 °F 61% 30.20 in 10.0 mi Calm Calm - N/A   Overcast
9:53 PM 46.0 °F - 34.0 °F 63% 30.19 in 10.0 mi Calm Calm - N/A   Overcast
10:53 PM 45.0 °F 43.5 °F 34.0 °F 65% 30.19 in 10.0 mi NNE 3.5 mph - N/A   Overcast
11:53 PM 45.0 °F 41.8 °F 36.0 °F 71% 30.18 in 10.0 mi East 5.8 mph - 0.00 in   Overcast